| time (UTC) | temp F | wind direction | speed MPH | gust MPH | rain 1hr in | rain 24hr in | rain mn in | humidity % | barometer mb |
| 20260505083100 | 56 | 126 | 0.0 | 2.0 | 0.00 | 0.03 | 0.03 | 71 | 1015.7 |
| 20260505081559 | 57 | 101 | 0.0 | 4.0 | 0.00 | 0.03 | 0.03 | 69 | 1015.4 |
| 20260505080052 | 57 | 58 | 0.0 | 3.0 | 0.00 | 0.03 | 0.03 | 68 | 1015.1 |
| 20260505074548 | 58 | 150 | 0.0 | 3.0 | 0.00 | 0.03 | 0.03 | 67 | 1014.7 |
| 20260505073053 | 58 | 155 | 0.0 | 0.0 | 0.00 | 0.03 | 0.03 | 65 | 1014.5 |
| 20260505071556 | 58 | 87 | 0.0 | 0.0 | 0.00 | 0.03 | 0.03 | 67 | 1014.3 |
| 20260505070045 | 59 | 122 | 0.0 | 0.0 | 0.00 | 0.03 | 0.03 | 63 | 1014.2 |
| 20260505064542 | 60 | 100 | 0.0 | 0.0 | 0.00 | 0.03 | 0.03 | 62 | 1014.0 |
| 20260505063040 | 61 | 139 | 0.0 | 0.0 | 0.00 | 0.03 | 0.03 | 62 | 1013.6 |
| 20260505061537 | 63 | 70 | 0.0 | 6.0 | 0.00 | 0.03 | 0.03 | 64 | 1013.3 |
| 20260505060044 | 64 | 98 | 0.0 | 3.0 | 0.00 | 0.03 | 0.03 | 65 | 1012.9 |
| 20260505054535 | 64 | 101 | 0.0 | 10.0 | 0.00 | 0.03 | 0.03 | 66 | 1012.7 |
| 20260505053032 | 64 | 229 | 0.0 | 8.0 | 0.00 | 0.03 | 0.03 | 68 | 1012.6 |
| 20260505051530 | 64 | 113 | 1.0 | 9.0 | 0.00 | 0.03 | 0.03 | 67 | 1012.5 |
| 20260505041526 | 64 | 164 | 0.0 | 7.0 | 0.00 | 0.03 | 0.03 | 68 | 1011.9 |
| 20260505040024 | 64 | 174 | 0.0 | 8.0 | 0.00 | 0.03 | 0.03 | 69 | 1011.9 |
| 20260505034524 | 63 | 112 | 1.0 | 12.0 | 0.00 | 0.03 | 0.03 | 69 | 1011.9 |
| 20260505033023 | 64 | 93 | 0.0 | 9.0 | 0.00 | 0.03 | 0.03 | 68 | 1011.7 |
| 20260505031522 | 64 | 101 | 1.0 | 9.0 | 0.00 | 0.03 | 0.03 | 65 | 1011.7 |
| 20260505030022 | 65 | 142 | 0.0 | 10.0 | 0.00 | 0.03 | 0.03 | 64 | 1011.7 |
| 20260505024521 | 65 | 138 | 2.0 | 12.0 | 0.00 | 0.03 | 0.03 | 65 | 1011.8 |
| 20260505023023 | 65 | 138 | 1.0 | 10.0 | 0.00 | 0.03 | 0.03 | 65 | 1011.7 |
| 20260505021521 | 65 | 190 | 2.0 | 7.0 | 0.00 | 0.03 | 0.03 | 66 | 1011.6 |
| 20260505020015 | 64 | 76 | 1.0 | 6.0 | 0.00 | 0.03 | 0.03 | 67 | 1011.6 |
| 20260505014515 | 64 | 151 | 2.0 | 9.0 | 0.00 | 0.03 | 0.03 | 67 | 1011.7 |
| 20260505013010 | 63 | 134 | 0.0 | 10.0 | 0.00 | 0.03 | 0.03 | 70 | 1011.7 |
| 20260505011511 | 63 | 66 | 1.0 | 12.0 | 0.00 | 0.03 | 0.03 | 71 | 1011.6 |
| 20260505010005 | 63 | 163 | 1.0 | 8.0 | 0.00 | 0.03 | 0.03 | 73 | 1011.5 |
| 20260505004601 | 62 | 111 | 1.0 | 13.0 | 0.00 | 0.03 | 0.03 | 74 | 1011.2 |
| 20260505003103 | 61 | 160 | 3.0 | 10.0 | 0.00 | 0.03 | 0.03 | 75 | 1011.0 |
| 20260505001554 | 61 | 136 | 1.0 | 5.0 | 0.01 | 0.03 | 0.03 | 77 | 1011.0 |
| 20260505000059 | 60 | 195 | 0.0 | 7.0 | 0.01 | 0.03 | 0.03 | 81 | 1010.8 |
| 20260504234547 | 59 | 82 | 0.0 | 0.0 | 0.01 | 0.03 | 0.03 | 87 | 1010.7 |
| 20260504233044 | 57 | 101 | 0.0 | 0.0 | 0.01 | 0.03 | 0.03 | 88 | 1010.6 |
| 20260504231538 | 56 | 159 | 0.0 | 0.0 | 0.00 | 0.02 | 0.02 | 91 | 1010.5 |
| 20260504230034 | 55 | 120 | 0.0 | 0.0 | 0.00 | 0.02 | 0.02 | 95 | 1010.5 |
| 20260504224532 | 53 | 272 | 0.0 | 0.0 | 0.00 | 0.02 | 0.02 | 95 | 1010.4 |
| 20260504223025 | 51 | 229 | 0.0 | 0.0 | 0.00 | 0.02 | 0.02 | 95 | 1010.4 |
| 20260504221522 | 50 | 231 | 0.0 | 0.0 | 0.00 | 0.02 | 0.02 | 94 | 1010.0 |
| 20260504220036 | 49 | 231 | 0.0 | 0.0 | 0.00 | 0.02 | 0.02 | 94 | 1009.7 |
| 20260504214525 | 49 | 232 | 0.0 | 0.0 | 0.00 | 0.02 | 0.02 | 93 | 1009.4 |
| 20260504213016 | 49 | 237 | 0.0 | 0.0 | 0.00 | 0.02 | 0.02 | 93 | 1009.0 |
| 20260504211523 | 49 | 239 | 0.0 | 0.0 | 0.00 | 0.02 | 0.02 | 93 | 1008.7 |
| 20260504210007 | 50 | 239 | 0.0 | 0.0 | 0.00 | 0.02 | 0.02 | 93 | 1008.4 |
| 20260504204511 | 50 | 239 | 0.0 | 0.0 | 0.00 | 0.03 | 0.02 | 93 | 1008.2 |
| 20260504203002 | 51 | 239 | 0.0 | 0.0 | 0.00 | 0.03 | 0.02 | 93 | 1007.7 |
| 20260504201618 | 51 | 239 | 0.0 | 0.0 | 0.00 | 0.03 | 0.02 | 92 | 1007.3 |
| 20260504200055 | 52 | 239 | 0.0 | 0.0 | 0.00 | 0.03 | 0.02 | 92 | 1007.1 |
| 20260504194555 | 52 | 239 | 0.0 | 0.0 | 0.00 | 0.03 | 0.02 | 92 | 1006.9 |
| 20260504193050 | 53 | 239 | 0.0 | 0.0 | 0.00 | 0.03 | 0.02 | 92 | 1006.9 |
| 20260504191556 | 54 | 239 | 0.0 | 0.0 | 0.00 | 0.03 | 0.02 | 92 | 1006.7 |
| 20260504190054 | 54 | 239 | 0.0 | 0.0 | 0.00 | 0.03 | 0.02 | 92 | 1006.5 |
| 20260504184557 | 55 | 239 | 0.0 | 0.0 | 0.00 | 0.03 | 0.02 | 92 | 1006.3 |
| 20260504183042 | 55 | 239 | 0.0 | 0.0 | 0.00 | 0.03 | 0.02 | 92 | 1006.0 |
| 20260504181539 | 56 | 239 | 0.0 | 0.0 | 0.00 | 0.03 | 0.02 | 92 | 1005.7 |
| 20260504180038 | 56 | 239 | 0.0 | 0.0 | 0.01 | 0.03 | 0.02 | 92 | 1005.6 |
| 20260504174538 | 56 | 239 | 0.0 | 0.0 | 0.02 | 0.03 | 0.02 | 92 | 1005.6 |
| 20260504173034 | 56 | 239 | 0.0 | 0.0 | 0.02 | 0.03 | 0.02 | 92 | 1005.4 |
| 20260504171534 | 56 | 239 | 0.0 | 0.0 | 0.02 | 0.03 | 0.02 | 92 | 1005.2 |
| 20260504120120 | 59 | 144 | 6.0 | 16.0 | 0.00 | 0.01 | 0.01 | 80 | 1007.2 |
| 20260504110105 | 58 | 272 | 0.0 | 0.0 | 0.00 | 0.01 | 0.01 | 87 | 1006.7 |